User: anonymous   Login
Location: Pardubice
(50.0330°N, 15.7830°E)
Time: 09:32:44
(UTC+02:00)
Language:

Tiros 1 despin weight - Orbit

View from above orbital plane
View from above orbital plane
View from above satellite
View from above satellite

Ground track
Ground track

The orbit data is extracted from the following two-line orbital elements,

1 00115U 60002D   24280.32365552  .00016423  00000-0  16339-2 0  9992
2 00115  48.1636 252.4070 0030179 359.3051   0.7818 14.91323558425515
Epoch (UTC): 06 October 2024 07:46:03
Eccentricity: 0.0030179
inclination: 48.1636°
perigee height: 573 km
apogee height: 615 km
right ascension of ascending node: 252.4070°
argument of perigee: 359.3051°
revolutions per day: 14.91323558
mean anomaly at epoch: 0.7818°
orbit number at epoch: 42551

The dashed part of the orbit path shows where the satellite is in the earth's shadow,  

DLR